Location: Lafig�re
(44.4503°N, 4.0357°E)
Time: 15:38:02
(UTC+00:00)

Transit 2A Rocket - Pass Details

Date: 25 January 2021
Orbit: 594 x 908 km, 66.7° (Epoch: 06 March)

Event Time Altitude Azimuth Distance (km) Brightness Sun altitude
Rises 18:54:14 0° 337° (NNW) 2,944 8.3 -23.2°
Reaches altitude 10° 18:57:08 10° 355° (N) 1,992 7.2 -23.7°
Enters shadow 18:57:43 12° 1° (N) 1,834 6.9 -23.8°
Maximum altitude 19:00:21 19° 42° (NE) 1,449 - -24.3°
Drops below altitude 10° 19:03:29 10° 88° (E) 1,933 - -24.9°
Sets 19:06:14 0° 107° (ESE) 2,827 - -25.4°
